Time,TemperatureF,DewpointF,PressureIn,WindDirection,WindDirectionDegrees,WindSpeedMPH,WindSpeedGustMPH,Humidity,HourlyPrecipIn,Conditions,Clouds,dailyrainin,SolarRadiationWatts/m^2,SoftwareType,DateUTC
2013-05-24 00:03:00,60.0,54.0,30.33,NW,320,3.0,17.0,81,0.00,,,0.31,0.000000,,2013-05-24 04:03:00,
2013-05-24 00:33:00,58.0,54.0,30.33,ENE,60,2.0,12.0,85,0.00,,,0.31,0.000000,,2013-05-24 04:33:00,
2013-05-24 00:42:00,58.0,54.0,30.33,ENE,60,2.0,12.0,85,0.00,,,0.31,0.000000,,2013-05-24 04:42:00,
2013-05-24 00:53:00,58.0,54.0,30.33,ENE,60,2.0,12.0,85,0.00,,,0.31,0.000000,,2013-05-24 04:53:00,
2013-05-24 01:02:00,58.0,54.0,30.33,ENE,60,2.0,12.0,85,0.00,,,0.31,0.000000,,2013-05-24 05:02:00,
2013-05-24 01:32:00,59.0,54.0,30.33,NW,326,3.0,14.0,83,0.00,,,0.31,0.000000,,2013-05-24 05:32:00,
2013-05-24 01:42:00,59.0,54.0,30.33,NW,326,3.0,14.0,83,0.00,,,0.31,0.000000,,2013-05-24 05:42:00,
2013-05-24 01:52:00,59.0,54.0,30.33,NW,326,3.0,14.0,83,0.00,,,0.31,0.000000,,2013-05-24 05:52:00,
2013-05-24 02:02:00,59.0,54.0,30.33,NW,326,3.0,14.0,83,0.00,,,0.31,0.000000,,2013-05-24 06:02:00,
2013-05-24 02:32:00,58.0,54.0,30.33,North,358,3.0,14.0,85,0.00,,,0.31,0.000000,,2013-05-24 06:32:00,
2013-05-24 02:42:00,58.0,54.0,30.33,North,358,3.0,14.0,85,0.00,,,0.31,0.000000,,2013-05-24 06:42:00,
2013-05-24 02:52:00,58.0,54.0,30.33,North,358,3.0,14.0,85,0.00,,,0.31,0.000000,,2013-05-24 06:52:00,
2013-05-24 03:02:00,58.0,54.0,30.33,North,358,3.0,14.0,85,0.00,,,0.31,0.000000,,2013-05-24 07:02:00,
2013-05-24 03:32:00,58.0,54.0,30.33,NE,52,3.0,11.0,87,0.00,,,0.31,0.000000,,2013-05-24 07:32:00,
2013-05-24 03:42:00,58.0,54.0,30.33,NE,52,3.0,11.0,87,0.00,,,0.31,0.000000,,2013-05-24 07:42:00,
2013-05-24 03:52:00,58.0,54.0,30.33,NE,52,3.0,11.0,87,0.00,,,0.31,0.000000,,2013-05-24 07:52:00,
2013-05-24 04:02:00,58.0,54.0,30.33,NE,52,3.0,11.0,87,0.00,,,0.31,0.000000,,2013-05-24 08:02:00,
2013-05-24 04:33:00,57.0,53.0,30.33,NW,308,2.0,10.0,86,0.00,,,0.31,0.000000,,2013-05-24 08:33:00,
2013-05-24 04:42:00,57.0,53.0,30.33,NW,308,2.0,10.0,86,0.00,,,0.31,0.000000,,2013-05-24 08:42:00,
2013-05-24 04:52:00,57.0,53.0,30.33,NW,308,2.0,10.0,86,0.00,,,0.31,0.000000,,2013-05-24 08:52:00,
2013-05-24 05:02:00,57.0,53.0,30.33,NW,308,2.0,10.0,86,0.00,,,0.31,0.000000,,2013-05-24 09:02:00,
2013-05-24 05:33:00,56.0,55.0,30.34,WNW,294,3.0,12.0,95,0.00,,,0.31,0.000000,,2013-05-24 09:33:00,
2013-05-24 05:42:00,56.0,55.0,30.34,WNW,294,3.0,12.0,95,0.00,,,0.31,0.000000,,2013-05-24 09:42:00,
2013-05-24 05:53:00,56.0,55.0,30.34,WNW,294,3.0,12.0,95,0.00,,,0.31,0.000000,,2013-05-24 09:53:00,
2013-05-24 06:03:00,56.0,55.0,30.34,WNW,294,3.0,12.0,95,0.00,,,0.31,0.000000,,2013-05-24 10:03:00,
2013-05-24 06:33:00,56.0,54.0,30.35,NNW,331,5.0,14.0,93,0.00,,,0.31,0.000000,,2013-05-24 10:33:00,
2013-05-24 06:42:00,56.0,54.0,30.35,NNW,331,5.0,14.0,93,0.00,,,0.31,0.000000,,2013-05-24 10:42:00,
2013-05-24 06:53:00,56.0,54.0,30.35,NNW,331,5.0,14.0,93,0.00,,,0.31,0.000000,,2013-05-24 10:53:00,
2013-05-24 07:02:00,56.0,54.0,30.35,NNW,331,5.0,14.0,93,0.00,,,0.31,0.000000,,2013-05-24 11:02:00,
2013-05-24 07:32:00,56.0,53.0,30.36,NNW,346,3.0,16.0,91,0.00,,,0.31,1.000000,,2013-05-24 11:32:00,
2013-05-24 07:42:00,56.0,53.0,30.36,NNW,346,3.0,16.0,91,0.00,,,0.31,1.000000,,2013-05-24 11:42:00,
2013-05-24 07:52:00,56.0,53.0,30.36,NNW,346,3.0,16.0,91,0.00,,,0.31,1.000000,,2013-05-24 11:52:00,
2013-05-24 08:02:00,56.0,53.0,30.36,NNW,346,3.0,16.0,91,0.00,,,0.31,1.000000,,2013-05-24 12:02:00,
2013-05-24 08:33:00,56.0,51.0,30.39,NNW,345,3.0,18.0,84,0.00,,,0.31,21.000000,,2013-05-24 12:33:00,
2013-05-24 08:42:00,56.0,51.0,30.39,NNW,345,3.0,18.0,84,0.00,,,0.31,21.000000,,2013-05-24 12:42:00,
2013-05-24 08:52:00,56.0,51.0,30.39,NNW,345,3.0,18.0,84,0.00,,,0.31,21.000000,,2013-05-24 12:52:00,
2013-05-24 09:02:00,56.0,51.0,30.39,NNW,345,3.0,18.0,84,0.00,,,0.31,21.000000,,2013-05-24 13:02:00,
2013-05-24 09:32:00,55.0,47.0,30.42,WNW,289,3.0,19.0,75,0.00,,,0.31,145.000000,,2013-05-24 13:32:00,
2013-05-24 09:42:00,55.0,47.0,30.42,WNW,289,3.0,19.0,75,0.00,,,0.31,145.000000,,2013-05-24 13:42:00,
2013-05-24 09:52:00,55.0,47.0,30.42,WNW,289,3.0,19.0,75,0.00,,,0.31,145.000000,,2013-05-24 13:52:00,
2013-05-24 10:02:00,55.0,47.0,30.42,WNW,289,3.0,19.0,75,0.00,,,0.31,145.000000,,2013-05-24 14:02:00,
2013-05-24 10:32:00,61.0,46.0,30.45,ENE,71,5.0,24.0,58,0.00,,,0.31,421.000000,,2013-05-24 14:32:00,
2013-05-24 10:42:00,61.0,46.0,30.45,ENE,71,5.0,24.0,58,0.00,,,0.31,421.000000,,2013-05-24 14:42:00,
2013-05-24 10:52:00,61.0,46.0,30.45,ENE,71,5.0,24.0,58,0.00,,,0.31,421.000000,,2013-05-24 14:52:00,
2013-05-24 11:02:00,61.0,46.0,30.45,ENE,71,5.0,24.0,58,0.00,,,0.31,421.000000,,2013-05-24 15:02:00,
2013-05-24 11:33:00,59.0,44.0,30.48,ESE,113,4.0,17.0,58,0.00,,,0.31,545.000000,,2013-05-24 15:33:00,
2013-05-24 11:43:00,59.0,44.0,30.48,ESE,113,4.0,17.0,58,0.00,,,0.31,545.000000,,2013-05-24 15:43:00,
2013-05-24 11:53:00,59.0,44.0,30.48,ESE,113,4.0,17.0,58,0.00,,,0.31,545.000000,,2013-05-24 15:53:00,
2013-05-24 12:03:00,59.0,44.0,30.48,ESE,113,4.0,17.0,58,0.00,,,0.31,545.000000,,2013-05-24 16:03:00,
2013-05-24 12:33:00,60.0,44.0,30.50,ESE,104,5.0,21.0,56,0.00,,,0.31,623.000000,,2013-05-24 16:33:00,
2013-05-24 12:42:00,60.0,44.0,30.50,ESE,104,5.0,21.0,56,0.00,,,0.31,623.000000,,2013-05-24 16:42:00,
2013-05-24 12:52:00,60.0,44.0,30.50,ESE,104,5.0,21.0,56,0.00,,,0.31,623.000000,,2013-05-24 16:52:00,
2013-05-24 13:02:00,60.0,44.0,30.50,ESE,104,5.0,21.0,56,0.00,,,0.31,623.000000,,2013-05-24 17:02:00,
2013-05-24 13:32:00,64.0,45.0,30.50,South,185,6.0,25.0,50,0.00,,,0.31,989.000000,,2013-05-24 17:32:00,
2013-05-24 13:42:00,64.0,45.0,30.50,South,185,6.0,25.0,50,0.00,,,0.31,989.000000,,2013-05-24 17:42:00,
2013-05-24 13:52:00,64.0,45.0,30.50,South,185,6.0,25.0,50,0.00,,,0.31,989.000000,,2013-05-24 17:52:00,
2013-05-24 14:01:00,64.0,45.0,30.50,South,185,6.0,25.0,50,0.00,,,0.31,989.000000,,2013-05-24 18:01:00,
2013-05-24 14:32:00,65.0,44.0,30.51,NE,45,6.0,25.0,47,0.00,,,0.31,1220.000000,,2013-05-24 18:32:00,
2013-05-24 14:42:00,65.0,44.0,30.51,NE,45,6.0,25.0,47,0.00,,,0.31,1220.000000,,2013-05-24 18:42:00,
2013-05-24 14:52:00,65.0,44.0,30.51,NE,45,6.0,25.0,47,0.00,,,0.31,1220.000000,,2013-05-24 18:52:00,
2013-05-24 15:01:00,65.0,44.0,30.51,NE,45,6.0,25.0,47,0.00,,,0.31,1220.000000,,2013-05-24 19:01:00,
2013-05-24 15:32:00,66.0,43.0,30.51,SE,126,4.0,21.0,43,0.00,,,0.31,1212.000000,,2013-05-24 19:32:00,
2013-05-24 15:42:00,66.0,43.0,30.51,SE,126,4.0,21.0,43,0.00,,,0.31,1212.000000,,2013-05-24 19:42:00,
2013-05-24 15:52:00,66.0,43.0,30.51,SE,126,4.0,21.0,43,0.00,,,0.31,1212.000000,,2013-05-24 19:52:00,
2013-05-24 16:02:00,66.0,43.0,30.51,SE,126,4.0,21.0,43,0.00,,,0.31,1212.000000,,2013-05-24 20:02:00,
2013-05-24 16:32:00,68.0,43.0,30.51,SSW,209,4.0,20.0,41,0.00,,,0.31,1095.000000,,2013-05-24 20:32:00,
2013-05-24 16:42:00,68.0,43.0,30.51,SSW,209,4.0,20.0,41,0.00,,,0.31,1095.000000,,2013-05-24 20:42:00,
2013-05-24 16:52:00,68.0,43.0,30.51,SSW,209,4.0,20.0,41,0.00,,,0.31,1095.000000,,2013-05-24 20:52:00,
2013-05-24 17:01:00,68.0,43.0,30.51,SSW,209,4.0,20.0,41,0.00,,,0.31,1095.000000,,2013-05-24 21:01:00,
2013-05-24 17:33:00,66.0,40.0,30.52,East,89,5.0,22.0,39,0.00,,,0.31,934.000000,,2013-05-24 21:33:00,
2013-05-24 17:43:00,66.0,40.0,30.52,East,89,5.0,22.0,39,0.00,,,0.31,934.000000,,2013-05-24 21:43:00,
2013-05-24 17:53:00,66.0,40.0,30.52,East,89,5.0,22.0,39,0.00,,,0.31,934.000000,,2013-05-24 21:53:00,
2013-05-24 18:03:00,66.0,40.0,30.52,East,89,5.0,22.0,39,0.00,,,0.31,934.000000,,2013-05-24 22:03:00,
2013-05-24 18:33:00,67.0,38.0,30.52,North,7,5.0,17.0,35,0.00,,,0.31,719.000000,,2013-05-24 22:33:00,
2013-05-24 18:42:00,67.0,38.0,30.52,North,7,5.0,17.0,35,0.00,,,0.31,719.000000,,2013-05-24 22:42:00,
2013-05-24 18:52:00,67.0,38.0,30.52,North,7,5.0,17.0,35,0.00,,,0.31,719.000000,,2013-05-24 22:52:00,
2013-05-24 19:02:00,67.0,38.0,30.52,North,7,5.0,17.0,35,0.00,,,0.31,719.000000,,2013-05-24 23:02:00,
2013-05-24 19:32:00,62.0,38.0,30.52,ENE,60,5.0,20.0,41,0.00,,,0.31,469.000000,,2013-05-24 23:32:00,
2013-05-24 19:42:00,62.0,38.0,30.52,ENE,60,5.0,20.0,41,0.00,,,0.31,469.000000,,2013-05-24 23:42:00,
2013-05-24 19:52:00,62.0,38.0,30.52,ENE,60,5.0,20.0,41,0.00,,,0.31,469.000000,,2013-05-24 23:52:00,
2013-05-24 20:01:00,62.0,38.0,30.52,ENE,60,5.0,20.0,41,0.00,,,0.31,469.000000,,2013-05-25 00:01:00,
2013-05-24 20:32:00,57.0,36.0,30.53,West,281,3.0,16.0,46,0.00,,,0.26,187.000000,,2013-05-25 00:32:00,
2013-05-24 20:42:00,57.0,36.0,30.53,West,281,3.0,16.0,46,0.00,,,0.26,187.000000,,2013-05-25 00:42:00,
2013-05-24 20:52:00,57.0,36.0,30.53,West,281,3.0,16.0,46,0.00,,,0.26,187.000000,,2013-05-25 00:52:00,
2013-05-24 21:01:00,57.0,36.0,30.53,West,281,3.0,16.0,46,0.00,,,0.26,187.000000,,2013-05-25 01:01:00,
2013-05-24 21:32:00,54.0,37.0,30.55,WSW,254,1.0,11.0,52,0.00,,,0.01,9.000000,,2013-05-25 01:32:00,
2013-05-24 21:42:00,54.0,37.0,30.55,WSW,254,1.0,11.0,52,0.00,,,0.01,9.000000,,2013-05-25 01:42:00,
2013-05-24 21:52:00,54.0,37.0,30.55,WSW,254,1.0,11.0,52,0.00,,,0.01,9.000000,,2013-05-25 01:52:00,
2013-05-24 22:02:00,54.0,37.0,30.55,WSW,254,1.0,11.0,52,0.00,,,0.01,9.000000,,2013-05-25 02:02:00,
2013-05-24 22:32:00,52.0,39.0,30.56,SSE,160,2.0,7.0,60,0.00,,,0.00,0.000000,,2013-05-25 02:32:00,
2013-05-24 22:42:00,52.0,39.0,30.56,SSE,160,2.0,7.0,60,0.00,,,0.00,0.000000,,2013-05-25 02:42:00,
2013-05-24 22:52:00,52.0,39.0,30.56,SSE,160,2.0,7.0,60,0.00,,,0.00,0.000000,,2013-05-25 02:52:00,
2013-05-24 23:02:00,52.0,39.0,30.56,SSE,160,2.0,7.0,60,0.00,,,0.00,0.000000,,2013-05-25 03:02:00,
2013-05-24 23:33:00,49.0,36.0,30.58,East,85,2.0,5.0,61,0.00,,,0.00,0.000000,,2013-05-25 03:33:00,
2013-05-24 23:43:00,49.0,36.0,30.58,East,85,2.0,5.0,61,0.00,,,0.00,0.000000,,2013-05-25 03:43:00,
2013-05-24 23:53:00,49.0,36.0,30.58,East,85,2.0,5.0,61,0.00,,,0.00,0.000000,,2013-05-25 03:53:00,